www.pogodaiklimat.ru

Погода и климат >> Архив погоды >> Россия >> Чукотка >> Константиновская


ПОГОДА в Константиновской

  • Прогноз погоды в Константиновской
  • Монитор погоды в Константиновской
  • Климат города

АРХИВ ПОГОДЫ в Константиновской

Время (UTC), дата Ветер
(напр.,м/с)
 
Видим.   Явления Облачность Т
(С)
Тd
(С)
f
(%)
Тe
(С)
Тes
(С)
Комфортность P
(гПа)
Po
(гПа)
Тmin
(С)
Tmax
(С)
R
(мм)
R24
(мм)
S
(см)
06 17.05 С 2
{5}
50 км 8/6 600 м
[Sc Ac trans]
+1.3 -3.9 68 -2 -1 1010.1 1009.0
09 17.05 СЗ 2
{4}
50 км 3/0
[Ac trans]
-0.5 -4.2 76 -4 -4 1009.8 1008.7 +1.5
12 17.05 штиль 0
{3}
50 км 3/0
[Ac trans]
-3.9 -5.1 91 -5 -5 1008.7 1007.6
15 17.05 штиль 0
{3}
50 км 3/0
[Ac trans]
-3.9 -5.1 91 -5 -5 1008.7 1007.6
18 17.05 В 1
{2}
50 км 9/1 600 м
[Sc Ac lent Ci fib]
+0.1 -2.6 82 -2 -1 1005.7 1004.6
21 17.05 ЮВ 3
{6}
50 км 10/0
[Ac trans Cs]
+8.1 -0.2 56 +6 +9 1004.8 1003.8 -4.7 9
00 18.05 ЮВ 3
{8}
50 км 10/0
[Ac trans Cs]
+10.3 +0.2 50 +9 +14 1004.1 1003.1
03 18.05 ЮВ 3
{8}
50 км 10/0
[Ac trans Cs]
+10.3 +0.2 50 +9 +13 1004.1 1003.1
06 18.05 ЮВ 3
{6}
50 км 9/0
[Ac trans Ci fib]
+13.0 -0.2 40 +12 +15 1003.2 1002.2
09 18.05 ЮВ 2
{4}
50 км 4/0
[Ci fib]
+12.3 -1.4 39 +12 +12 1002.0 1001.0 +14.4
12 18.05 ЮВ 2
{6}
50 км 1/0
[Ci fib]
+6.9 -1.0 57 +5 +5 1002.9 1001.9
15 18.05 В 3
{6}
50 км 3/0
[Ci fib]
+3.7 -0.9 72 0 0 1003.3 1002.3
18 18.05 В 4
{6}
50 км 1/0
[Ci fib]
+4.5 -0.9 68 +1 +1 1002.9 1001.9
21 18.05 ЮВ 4
{9}
50 км 3/0
[Ci fib]
+7.5 -0.5 57 +5 +8 1002.8 1001.8 +3.0 6
00 19.05 ЮВ 3
{7}
50 км 3/0
[Ci fib]
+10.7 -0.2 47 +9 +17 1002.4 1001.4
03 19.05 ЮВ 3
{6}
50 км 1/0
[Ci fib]
+13.1 -0.2 40 +12 +20 1001.6 1000.6
06 19.05 В 3
{5}
50 км 1/0
[Ci fib]
+14.0 -1.4 35 +13 +17 1000.7 999.7
09 19.05 В 2
{5}
50 км 3/0
[Ci fib]
+12.9 -1.2 38 +13 +13 1000.4 999.4 +14.3
12 19.05 В 1
{4}
50 км 4/0
[Ac trans Ci fib]
+3.9 -2.3 64 +3 +3 1000.6 999.6
15 19.05 ЮВ 3
{4}
50 км 3/0
[Ci fib]
+5.3 -0.5 66 +2 +2 1001.2 1000.2
18 19.05 В 4
{6}
50 км 3/0
[Ci fib]
+5.9 +0.2 67 +2 +3 1001.4 1000.4
21 19.05 ЮВ 5
{9}
50 км 1/0
[Ci fib]
+9.6 +0.4 53 +7 +9 1001.1 1000.1 +2.1 <0.5
00 20.05 ЮВ 5
{9}
50 км 1/0
[Ci fib]
+11.7 -0.2 44 +10 +15 1001.1 1000.1
03 20.05 ЮВ 4
{9}
50 км 4/3 1000 м
[Sc Ci fib]
+13.5 -0.9 37 +12 +16 1000.3 999.3
06 20.05 ЮВ 4
{8}
50 км 6/6 600 м
[Sc diur, vesp]
+13.6 -1.9 34 +12 +14 999.8 998.8
09 20.05 ЮВ 3
{7}
50 км 4/0
[Ac trans]
+12.2 -1.7 38 +11 +12 1000.4 999.4 +14.4
12 20.05 В 3
{5}
50 км 6/4 1000 м
[Sc Ac trans]
+7.8 0.0 58 +5 +5 1001.6 1000.6
15 20.05 В 2
{6}
50 км 3/0
[Ac lent Ci fib]
+4.0 0.0 75 +1 +1 1001.8 1000.8
18 20.05 В 3
{4}
50 км 3/0
[Ac trans]
+5.6 +0.1 68 +3 +3 1001.7 1000.7
21 20.05 В 5
{8}
50 км 1/0
[Ci fib]
+9.5 +0.4 53 +7 +9 1001.2 1000.2 +3.6 0
00 21.05 ЮВ 4
{8}
50 км 3/3 600 м
[Cu hum]
+12.4 -0.7 40 +11 +15 1000.0 999.0
03 21.05 В 5
{9}
50 км 1/1 1000 м
[Cu hum]
+13.4 -1.4 36 +12 +16 998.7 997.7
06 21.05 В 6
{10}
50 км 3/3 1000 м
[Cu hum]
+13.0 -3.0 33 +11 +12 998.4 997.4
09 21.05 В 5
{10}
50 км 1/0
[Ci fib]
+10.7 -2.2 40 +8 +9 999.3 998.3 +13.7
12 21.05 В 3
{8}
50 км ясно +5.6 -2.1 58 +3 +3 1001.1 1000.1
15 21.05 В 2
{7}
50 км 4/0
[Ac trans Ci fib]
+2.2 -3.1 68 -1 -1 1002.4 1001.4
18 21.05 В 3
{6}
50 км 1/0
[Ci fib]
+4.3 -2.8 60 +1 +2 1003.4 1002.4
21 21.05 В 3
{6}
50 км 1/0
[Ci fib]
+7.7 -3.3 46 +6 +10 1003.8 1002.8 +1.7
00 22.05 ЮВ 3
{7}
50 км 3/3 1000 м
[Cu hum]
+10.8 -4.1 35 +9 +15 1003.9 1002.9
03 22.05 В 3
{7}
50 км 8/8 1000 м
[Cu hum]
+12.3 -3.8 32 +11 +13 1003.8 1002.8
06 22.05 В 1
{7}
50 км 6/6 1000 м
[Cu med, cong]
+13.9 -3.3 30 +15 +17 1003.7 1002.7
09 22.05 В 1
{5}
50 км 8/8 1000 м
[Sc diur, vesp]
+11.0 -4.7 33 +11 +12 1005.0 1004.0 +13.9
12 22.05 В 3
{6}
50 км 3/3 1000 м
[Sc]
+6.3 -0.8 60 +4 +4 1006.3 1005.3
15 22.05 В 1
{6}
50 км 3/0
[Ac trans]
-1.1 -2.1 93 -3 -3 1007.2 1006.1
18 22.05 СВ 1
{5}
50 км 1/0
[Ac trans]
+3.7 -1.3 70 +3 +4 1008.0 1007.0
21 22.05 СВ 1
{5}
50 км ясно +8.2 -1.2 51 +8 +14 1008.6 1007.6 -1.3
00 23.05 С 1
{5}
50 км 1/1 600 м
[Cu hum]
+11.5 -1.4 41 +12 +22 1008.2 1007.2
03 23.05 С 2
{6}
50 км 4/3 600 м
[Cu hum Ci fib]
+13.0 -3.3 32 +13 +19 1008.0 1007.0
06 23.05 СЗ 3
{7}
50 км 3/3 600 м
[Cu hum Ci fib]
+13.0 -4.1 30 +12 +15 1007.9 1006.9
09 23.05 СВ 3
{8}
50 км 3/0
[Ci fib]
+8.5 -5.4 37 +7 +7 1008.9 1007.9 +13.7
12 23.05 СВ 2
{6}
50 км 6/0
[Ci fib]
+1.5 -4.7 63 -1 -1 1011.1 1010.0
15 23.05 СВ 1
{5}
50 км 8/0
[Cc]
-1.6 -5.3 76 -4 -4 1011.9 1010.8
18 23.05 В 2
{4}
50 км 8/0
[Ci fib]
+0.6 -5.9 62 -2 -1 1012.5 1011.4
21 23.05 СВ 1
{5}
50 км 3/0
[Ci fib]
+5.0 -7.4 40 +5 +11 1012.8 1011.8 -2.1
00 24.05 С 2
{6}
50 км 1/0
[Ci fib]
+8.3 -6.7 34 +7 +17 опасность
простуды
1012.1 1011.1
03 24.05 С 2
{6}
50 км 3/0
[Ci fib]
+10.5 -6.4 30 +10 +19 1011.1 1010.1

 

Местоположение метеостанции Константиновская (Чукотка, Россия): широта 68.15 долгота 161.10 высота над уровнем моря 8 м.

В архиве по умолчанию представлена погода в Константиновской за последнюю неделю. Архивные данные за месяц целиком и за предыдущие месяцы, начиная с января 2011 года, Вы можете получить, выбрав интересующий диапазон дат из раскрывающегося списка и нажав кнопку "Ввод!".

Внимание! Время в таблицах - всемирное. Для получения местного времени необходимо прибавить поправку, которая в Константиновской равна 12 ч.

Смотрите также архив погоды в соседних городах и на ближайших метеорологических станциях:

Погода в Анюйске (Чукотка, Россия) (28 км)
Погода в Черском (Якутия, Россия) (65 км)
Погода в Колымской (Якутия, Россия) (120 км)
Погода на Островном (Чукотка, Россия) (124 км)
Погода в Бухте Амбарчик (Чукотка, Россия) (170 км)
Погода в Билибино (Чукотка, Россия) (220 км)
Погода в Баимке (Чукотка, Россия) (224 км)
Погода в Раучуе (Чукотка, Россия) (264 км)
Погода в Андрюшкино (Якутия, Россия) (290 км)
Погода в Илирнее (Чукотка, Россия) (304 км)

Пояснения к столбцам:

Ветер - указаны скорость ветра в м/с - средняя за 10 мин, порывы в срок и между сроками (в фигурных скобках) и направление, откуда дует ветер: С - северный, СВ - северо-восточный, В - восточный, ЮВ - юго-восточный, Ю - южный, ЮЗ - юго-западный, З - западный, СЗ - северо-западный.
Видимость - горизонтальная дальность видимости в метрах или километрах. При видимости от 1 до 10 км при отсутствии осадков обычно наблюдается дымка, при ухудшении видимости до 1 км и менее - туман. В сухую погоду видимость может ухудшаться дымом, пылью или мглою.
Явления - указаны атмосферные явления, наблюдавшиеся в срок или в последний час перед сроком; фигурными скобками обозначены явления, наблюдавшиеся между сроками (за 1-3 часа до срока); квадратными скобками обозначены град или гололедные отложения с указанием их диаметра в мм.
Облачность - указаны через наклонную черту общая и нижняя облачность в баллах и высота нижней границы облаков в метрах; квадратными скобками обозначены формы облаков: Ci - перистые, Cs - перисто-слоистые, Cc - перисто-кучевые, Ac - высококучевые, As - высокослоистые, Sc - слоисто-кучевые, Ns - слоисто-дождевые, Cu - кучевые, Cb - кучево-дождевые. Подробнее классификацию облаков см. в Атласе облаков (PDF).
T - Температура воздуха - температура, измеренная на высоте 2 м над землей.
Td - Температура точки росы - температура, при понижении до которой содержащийся в воздухе водяной пар достигнет насыщения.
f - Относительная влажность воздуха - влажноcть воздуха, измеренная на высоте 2 м над землей.
Te - Эффективная температура - температура, которую ощущает одетый по сезону человек в тени. Характеристика душности погоды. При расчете учитывается влияние влажности воздуха и скорости ветра на теплоощущения человека.
Tes - Эффективная температура на солнце - температура, которую ощущает человек, с поправкой на солнечный нагрев. Характеристика знойности погоды. Зависит от высоты солнца над горизонтом, облачности и скорости ветра. Ночью, в пасмурную погоду, а также при ветре 12 м/с и более поправка равна нулю.
P - Атмосферное давление - приведенное к уровню моря атмосферное давление.
Po - Атмосферное давление - измеренное на уровне метеостанции атмосферное давление.
Tmin - Минимальная температура - минимум температуры воздуха на высоте 2 м над землей.
Tmax - Максимальная температура - максимум температуры воздуха на высоте 2 м над землей.
R - Количество осадков - Количество выпавших осадков за период времени, мм. При наведении курсора мыши на число - период времени, за который выпало указанное количество осадков.
R24 - Количество осадков - Количество выпавших осадков за 24 часа, мм.
S - Снежный покров - Высота снежного покрова, см. При наведении курсора мыши на число - состояние снежного покрова и степень покрытия местности в баллах.